sat.trackr.live / text

‹ back to catalog

STARLINK-34849

NORAD 66005 · 2025-232A

PAYLOAD ACTIVE UNKNOWN

§ Identity

Operator
Country
US
Launch date
2025-10-16
Launch site
AFETR
Launch vehicle
Mass (kg)
RCS (m²)

Purposes: comms

External: N2YO · Heavens-Above · Gunter

§ Orbital elements

Epoch: 2026-05-25T03:31:43.901760Z

Period
93.85 min
Inclination
53.1607°
Eccentricity
0.0001284
Mean motion
15.34407488 rev/d
Perigee alt
461.8 km
Apogee alt
463.6 km
Semi-major
6,840.8 km
B*
6.4903e-4
RAAN
108.6243°
Arg perigee
115.6497°
Mean anomaly
244.4638°
Rev number
3,513

§ Raw data

STARLINK-348491 66005U 25232A   26145.14703590  .00021621  00000+0  64903-3 0  99942 66005  53.1607 108.6243 0001284 115.6497 244.4638 15.34407488 35130

JSON: /api/v1/satellites/66005 · /tle

For live sub-satellite position, see the globe view (requires WebGL).

§ Visibility from observer

Set your observer location to see the next 7 days of passes ≥ 10°. The values pass through the URL so the page stays shareable.

No JS? Fill the form by hand. The geolocation button needs JavaScript.